Location: Lone Tree Crossing
(44.4480°N, 108.7040°W)
Time: 14:58:22
(UTC+00:00)

Tiangong - Visible Passes

Search period start: 24 January 2022 00:00
Search period end: 03 February 2022 00:00
Orbit: 383 x 386 km, 41.5° (Epoch: 23 January)

Date Brightness Start Highest point End Pass type
(mag) Time Alt. Az. Time Alt. Az. Time Alt. Az.
28 Jan 2.9 02:03:52 10° SSW 02:05:55 21° S 02:05:55 21° S visible
29 Jan 3.3 01:04:52 10° S 01:06:48 15° SSE 01:08:44 10° ESE visible
29 Jan 3.6 02:40:10 10° WSW 02:41:18 19° SW 02:41:18 19° SW visible
30 Jan 2.3 01:40:36 10° SW 01:43:27 31° SSE 01:44:26 25° SE visible
31 Jan 2.1 02:17:10 10° WSW 02:19:42 41° SSW 02:19:42 41° SSW visible
01 Feb 2.0 01:17:27 10° WSW 01:20:27 39° SSE 01:22:44 15° ESE visible
01 Feb 4.0 02:53:58 10° W 02:54:56 18° WSW 02:54:56 18° WSW visible
02 Feb 1.6 01:54:07 10° WSW 01:57:12 49° S 01:57:57 38° SE visible
